QPF
0.03 0.02 0.01 0.03 0.05 0.02 0.01 0.01 0.00 0.00 0.00 0.00 0.00 0.00 0.00 0.00 0.00 0.00 0.00 0.00 0.00 0.00 0.00 0.00 0.00 0.00 0.00 0.00 0.00 0.00 0.00 0.00 0.00 0.00 0.00 0.00 0.00 0.00 0.00 0.00 0.00 0.00 0.00 0.00 0.00 0.00 0.00
0.03 0.03 0.02 0.02 0.02 0.01 0.01 0.02 0.02 0.01 0.00 0.00 0.00 0.00 0.00 0.00 0.00 0.00 0.00 0.00 0.00 0.00 0.00 0.00 0.00 0.00 0.00 0.00 0.00 0.00 0.00 0.00 0.00 0.00 0.00 0.00 0.00 0.00 0.00 0.00 0.00 0.00 0.00 0.00 0.00 0.00 0.00
0.07 0.06 0.05 0.02 0.01 0.01 0.04 0.05 0.02 0.01 0.00 0.00 0.00 0.00 0.00 0.00 0.00 0.00 0.00 0.00 0.00 0.00 0.00 0.00 0.00 0.00 0.00 0.00 0.00 0.00 0.00 0.00 0.00 0.00 0.00 0.00 0.00 0.00 0.00 0.00 0.00 0.00 0.00 0.00 0.00 0.00 0.00
0.06 0.11 0.09 0.06 0.03 0.01 0.02 0.02 0.02 0.01 0.00 0.00 0.00 0.00 0.00 0.00 0.00 0.00 0.00 0.00 0.00 0.00 0.00 0.00 0.00 0.00 0.00 0.00 0.00 0.00 0.00 0.00 0.00 0.00 0.00 0.00 0.00 0.00 0.00 0.00 0.00 0.00 0.00 0.00 0.00 0.00 0.00
0.04 0.07 0.10 0.08 0.06 0.06 0.03 0.01 0.01 0.01 0.01 0.00 0.00 0.00 0.00 0.00 0.00 0.00 0.00 0.00 0.00 0.00 0.00 0.00 0.00 0.00 0.00 0.00 0.00 0.00 0.00 0.00 0.00 0.00 0.00 0.00 0.00 0.00 0.00 0.00 0.00 0.00 0.00 0.00 0.00 0.00 0.00
0.02 0.05 0.08 0.10 0.12 0.11 0.07 0.03 0.01 0.01 0.01 0.01 0.00 0.00 0.00 0.00 0.00 0.00 0.00 0.00 0.00 0.00 0.00 0.00 0.00 0.00 0.00 0.00 0.00 0.00 0.00 0.00 0.00 0.00 0.00 0.00 0.00 0.00 0.00 0.00 0.00 0.00 0.00 0.00 0.00 0.00 0.00
0.01 0.03 0.05 0.08 0.11 0.10 0.07 0.04 0.03 0.02 0.03 0.02 0.01 0.00 0.00 0.00 0.00 0.00 0.00 0.00 0.00 0.00 0.00 0.00 0.00 0.00 0.00 0.00 0.00 0.00 0.00 0.00 0.00 0.00 0.00 0.00 0.00 0.00 0.00 0.00 0.00 0.00 0.00 0.00 0.00 0.00 0.00
0.00 0.01 0.02 0.04 0.08 0.10 0.08 0.08 0.05 0.03 0.03 0.03 0.02 0.00 0.00 0.00 0.00 0.00 0.00 0.00 0.00 0.00 0.00 0.00 0.00 0.00 0.00 0.00 0.00 0.00 0.00 0.00 0.00 0.00 0.00 0.00 0.00 0.00 0.00 0.00 0.00 0.00 0.00 0.00 0.00 0.00 0.00
0.00 0.01 0.01 0.02 0.03 0.06 0.07 0.07 0.06 0.04 0.04 0.03 0.03 0.02 0.00 0.00 0.00 0.00 0.00 0.00 0.00 0.00 0.00 0.00 0.00 0.00 0.00 0.00 0.00 0.00 0.00 0.00 0.00 0.00 0.00 0.00 0.00 0.00 0.00 0.00 0.00 0.00 0.00 0.00 0.00 0.00 0.00
0.01 0.00 0.01 0.01 0.02 0.03 0.06 0.05 0.05 0.06 0.07 0.04 0.05 0.05 0.01 0.00 0.00 0.00 0.00 0.00 0.00 0.00 0.00 0.00 0.00 0.00 0.00 0.00 0.00 0.00 0.00 0.00 0.00 0.00 0.00 0.00 0.00 0.00 0.00 0.00 0.00 0.00 0.00 0.00 0.00 0.00 0.00
0.02 0.00 0.01 0.01 0.01 0.03 0.04 0.04 0.05 0.10 0.11 0.08 0.08 0.08 0.03 0.00 0.00 0.00 0.00 0.00 0.00 0.00 0.00 0.00 0.00 0.00 0.00 0.00 0.00 0.00 0.00 0.00 0.00 0.00 0.00 0.00 0.00 0.00 0.00 0.00 0.00 0.00 0.00 0.00 0.00 0.00 0.00
0.02 0.01 0.00 0.01 0.01 0.03 0.04 0.04 0.06 0.09 0.11 0.10 0.08 0.11 0.05 0.01 0.00 0.00 0.00 0.00 0.00 0.00 0.00 0.00 0.00 0.00 0.00 0.00 0.00 0.00 0.00 0.00 0.00 0.00 0.00 0.00 0.00 0.00 0.00 0.00 0.00 0.00 0.00 0.00 0.00 0.00 0.00
0.02 0.02 0.00 0.00 0.01 0.01 0.03 0.03 0.03 0.04 0.08 0.09 0.05 0.11 0.08 0.00 0.00 0.00 0.00 0.00 0.00 0.00 0.00 0.00 0.00 0.00 0.00 0.00 0.00 0.00 0.00 0.00 0.00 0.00 0.00 0.00 0.00 0.00 0.00 0.00 0.00 0.00 0.00 0.00 0.00 0.00 0.00
0.06 0.03 0.01 0.00 0.00 0.00 0.01 0.04 0.02 0.01 0.02 0.03 0.02 0.08 0.16 0.00 0.00 0.00 0.00 0.00 0.01 0.00 0.00 0.00 0.00 0.00 0.00 0.00 0.00 0.00 0.00 0.00 0.00 0.00 0.00 0.00 0.00 0.00 0.00 0.00 0.00 0.00 0.00 0.00 0.00 0.00 0.00
0.06 0.03 0.00 0.01 0.03 0.03 0.03 0.06 0.05 0.04 0.02 0.02 0.03 0.05 0.16 0.04 0.02 0.02 0.03 0.02 0.00 0.00 0.00 0.00 0.00 0.00 0.00 0.00 0.00 0.00 0.00 0.00 0.00 0.00 0.00 0.00 0.00 0.00 0.00 0.00 0.00 0.00 0.00 0.00 0.00 0.00 0.00
0.09 0.04 0.02 0.02 0.03 0.02 0.04 0.03 0.06 0.09 0.05 0.10 0.12 0.11 0.08 0.03 0.05 0.05 0.07 0.05 0.00 0.00 0.00 0.00 0.00 0.00 0.00 0.00 0.00 0.00 0.00 0.00 0.00 0.00 0.00 0.00 0.00 0.00 0.00 0.00 0.00 0.00 0.00 0.00 0.00 0.00 0.00
0.11 0.06 0.03 0.04 0.03 0.03 0.01 0.02 0.07 0.10 0.11 0.33 0.26 0.26 0.12 0.06 0.13 0.10 0.15 0.04 0.00 0.00 0.00 0.00 0.00 0.00 0.00 0.00 0.00 0.00 0.00 0.00 0.00 0.00 0.00 0.00 0.00 0.00 0.00 0.00 0.00 0.00 0.00 0.00 0.00 0.00 0.00
0.08 0.06 0.08 0.07 0.03 0.02 0.01 0.02 0.08 0.15 0.09 0.35 0.37 0.31 0.13 0.13 0.12 0.08 0.04 0.00 0.00 0.00 0.00 0.00 0.00 0.00 0.00 0.00 0.00 0.00 0.00 0.00 0.00 0.00 0.00 0.00 0.00 0.00 0.00 0.00 0.00 0.00 0.00 0.00 0.00 0.00 0.00
0.03 0.03 0.02 0.04 0.02 0.02 0.02 0.02 0.08 0.27 0.09 0.23 0.37 0.20 0.14 0.29 0.30 0.06 0.00 0.00 0.00 0.00 0.00 0.00 0.00 0.00 0.00 0.00 0.00 0.00 0.00 0.00 0.00 0.00 0.00 0.00 0.00 0.00 0.00 0.00 0.00 0.00 0.00 0.00 0.00 0.00 0.00
0.01 0.01 0.01 0.01 0.01 0.02 0.04 0.04 0.10 0.25 0.18 0.10 0.33 0.23 0.21 0.33 0.42 0.04 0.00 0.00 0.00 0.00 0.00 0.00 0.00 0.00 0.00 0.00 0.00 0.00 0.00 0.00 0.00 0.00 0.00 0.00 0.00 0.00 0.00 0.00 0.00 0.00 0.00 0.00 0.00 0.00 0.00
0.02 0.02 0.02 0.00 0.01 0.03 0.00 0.01 0.05 0.20 0.26 0.08 0.22 0.27 0.20 0.40 0.35 0.11 0.00 0.00 0.00 0.00 0.00 0.00 0.00 0.00 0.00 0.00 0.00 0.00 0.00 0.00 0.00 0.00 0.00 0.00 0.00 0.00 0.00 0.00 0.00 0.00 0.00 0.00 0.00 0.00 0.00
0.03 0.04 0.02 0.01 0.01 0.04 0.01 0.01 0.03 0.14 0.29 0.10 0.12 0.17 0.16 0.22 0.26 0.15 0.04 0.00 0.00 0.00 0.00 0.00 0.00 0.00 0.00 0.00 0.00 0.00 0.00 0.00 0.00 0.00 0.00 0.00 0.00 0.00 0.00 0.00 0.00 0.00 0.00 0.00 0.00 0.00 0.00
0.06 0.03 0.01 0.00 0.00 0.02 0.04 0.01 0.02 0.08 0.20 0.13 0.08 0.11 0.14 0.18 0.24 0.29 0.27 0.13 0.01 0.01 0.01 0.00 0.00 0.00 0.00 0.00 0.00 0.00 0.00 0.00 0.00 0.00 0.00 0.00 0.00 0.00 0.00 0.00 0.00 0.00 0.00 0.00 0.00 0.00 0.00
0.02 0.00 0.00 0.00 0.00 0.02 0.03 0.01 0.02 0.03 0.12 0.16 0.08 0.07 0.08 0.12 0.14 0.27 0.33 0.22 0.09 0.07 0.05 0.02 0.01 0.01 0.02 0.00 0.00 0.00 0.00 0.00 0.00 0.00 0.00 0.00 0.00 0.00 0.00 0.01 0.01 0.00 0.00 0.00 0.00 0.00 0.00
0.01 0.00 0.00 0.00 0.02 0.03 0.02 0.03 0.03 0.02 0.03 0.13 0.14 0.05 0.03 0.06 0.07 0.13 0.21 0.23 0.24 0.21 0.19 0.10 0.04 0.02 0.03 0.03 0.07 0.07 0.05 0.06 0.06 0.04 0.02 0.01 0.01 0.01 0.04 0.05 0.03 0.01 0.00 0.00 0.00 0.00 0.00
0.02 0.01 0.00 0.00 0.00 0.04 0.02 0.01 0.01 0.03 0.06 0.11 0.17 0.06 0.02 0.02 0.04 0.05 0.09 0.11 0.12 0.13 0.18 0.13 0.09 0.05 0.02 0.02 0.04 0.05 0.05 0.03 0.03 0.04 0.04 0.05 0.06 0.07 0.14 0.10 0.08 0.01 0.00 0.00 0.00 0.00 0.00
0.02 0.02 0.01 0.00 0.00 0.00 0.00 0.00 0.00 0.00 0.06 0.09 0.15 0.05 0.03 0.01 0.03 0.03 0.04 0.05 0.03 0.02 0.06 0.08 0.05 0.02 0.00 0.00 0.01 0.01 0.02 0.01 0.02 0.01 0.01 0.03 0.05 0.06 0.08 0.08 0.04 0.00 0.00 0.00 0.00 0.00 0.00
0.01 0.01 0.02 0.01 0.00 0.00 0.00 0.00 0.00 0.00 0.08 0.09 0.14 0.07 0.02 0.02 0.02 0.00 0.00 0.00 0.01 0.00 0.01 0.02 0.00 0.00 0.00 0.00 0.00 0.00 0.00 0.00 0.00 0.00 0.00 0.00 0.01 0.02 0.03 0.05 0.01 0.00 0.00 0.00 0.00 0.00 0.00
0.01 0.01 0.02 0.01 0.01 0.00 0.00 0.00 0.01 0.00 0.03 0.08 0.14 0.12 0.02 0.01 0.03 0.01 0.00 0.00 0.00 0.00 0.00 0.00 0.00 0.00 0.00 0.00 0.00 0.00 0.00 0.00 0.00 0.00 0.00 0.00 0.00 0.00 0.00 0.00 0.00 0.00 0.00 0.00 0.00 0.00 0.00
MSLP
1017.89 1017.82 1017.83 1017.83 1017.41 1016.96 1016.31 1015.47 1015.40 1015.23 1015.25 1015.24 1015.26 1015.49 1015.69 1015.66 1015.51 1015.35 1015.34 1015.03 1014.78 1014.45 1014.32 1014.26 1014.08 1014.01 1013.92 1013.90 1012.97 1012.67 1012.72 1012.74 1012.85 1012.87 1012.89 1012.85 1012.87 1012.70 1012.66 1012.59 1012.49 1012.70 1012.68 1012.60 1012.56 1012.64 1012.66
1017.83 1017.74 1017.70 1017.38 1017.19 1016.81 1016.38 1016.18 1015.64 1015.25 1014.74 1014.75 1014.80 1014.97 1015.19 1015.40 1015.33 1015.17 1015.18 1014.98 1014.66 1014.33 1014.01 1014.02 1013.88 1013.97 1013.99 1013.62 1012.57 1012.53 1012.79 1012.94 1012.79 1012.79 1012.80 1012.82 1012.76 1012.66 1012.57 1012.46 1012.57 1012.66 1012.75 1012.74 1012.75 1012.82 1012.91
1017.21 1017.49 1017.35 1017.06 1016.57 1016.34 1015.97 1015.91 1015.25 1014.89 1014.53 1014.44 1014.31 1014.47 1014.80 1015.01 1015.19 1015.08 1014.93 1014.83 1014.63 1014.36 1013.78 1013.64 1013.63 1013.66 1013.63 1012.93 1012.49 1012.61 1012.77 1012.86 1012.79 1012.71 1012.70 1012.67 1012.79 1012.78 1012.61 1012.62 1012.68 1012.74 1013.07 1012.97 1012.88 1012.98 1013.15
1016.77 1016.72 1016.81 1016.35 1016.15 1015.86 1015.81 1015.41 1015.00 1014.69 1014.35 1013.77 1013.86 1013.97 1014.24 1014.52 1014.75 1014.91 1014.83 1014.57 1014.32 1014.23 1013.75 1013.41 1013.34 1013.39 1013.27 1012.64 1012.58 1012.72 1012.81 1012.93 1012.94 1012.83 1012.76 1012.71 1012.83 1013.01 1012.98 1013.02 1013.01 1013.18 1013.45 1013.58 1013.10 1013.19 1013.38
1016.57 1016.24 1016.03 1015.92 1015.83 1015.25 1015.26 1015.08 1014.68 1014.06 1013.50 1013.08 1013.09 1013.59 1013.42 1014.13 1014.40 1014.50 1014.61 1014.43 1014.05 1013.82 1013.75 1013.27 1013.35 1013.07 1013.08 1012.76 1012.65 1012.51 1012.59 1012.93 1013.05 1013.02 1012.95 1012.92 1012.98 1013.23 1013.42 1013.74 1013.95 1013.75 1013.80 1013.68 1013.49 1013.35 1013.64
1016.06 1015.80 1015.38 1015.49 1014.89 1015.03 1014.93 1014.69 1014.25 1013.59 1013.14 1012.61 1012.66 1012.99 1013.14 1013.28 1014.05 1014.25 1014.17 1014.11 1013.70 1013.76 1013.64 1013.44 1012.84 1013.12 1012.72 1012.38 1012.35 1012.52 1012.60 1012.77 1013.05 1013.33 1013.40 1013.37 1013.55 1013.69 1014.02 1014.25 1014.16 1013.76 1013.74 1013.31 1013.44 1013.54 1013.89
1015.20 1014.74 1014.52 1014.70 1014.76 1014.62 1014.57 1014.43 1013.94 1013.28 1013.06 1012.57 1012.17 1012.45 1012.84 1013.05 1013.29 1014.02 1014.20 1013.76 1014.05 1013.99 1013.35 1012.24 1011.40 1011.24 1011.32 1011.94 1012.15 1012.56 1012.57 1012.85 1013.17 1013.58 1013.82 1013.70 1014.19 1013.89 1013.46 1013.31 1013.15 1013.09 1013.38 1013.49 1013.42 1013.48 1014.00
1014.79 1014.62 1014.42 1014.36 1014.21 1013.92 1013.98 1013.76 1013.40 1013.11 1012.97 1012.06 1011.61 1011.92 1012.33 1012.79 1012.99 1013.49 1014.18 1013.86 1012.81 1013.06 1012.55 1011.54 1011.63 1011.23 1011.10 1011.11 1012.09 1012.50 1012.53 1013.02 1013.36 1013.78 1013.84 1014.22 1013.87 1013.39 1013.38 1013.20 1013.23 1013.35 1013.56 1013.76 1013.77 1013.97 1014.41
1014.14 1014.05 1013.81 1013.61 1013.50 1013.46 1013.53 1013.33 1013.06 1012.62 1012.26 1011.79 1010.97 1011.38 1011.88 1012.40 1012.92 1013.33 1013.39 1013.05 1012.54 1012.55 1012.56 1011.27 1011.06 1011.06 1011.16 1011.20 1011.33 1011.89 1012.53 1012.69 1013.05 1013.63 1013.85 1013.92 1013.24 1012.74 1013.13 1013.20 1013.17 1013.44 1013.90 1014.27 1014.50 1014.69 1014.70
1013.62 1013.40 1013.42 1013.33 1013.16 1012.98 1012.93 1012.51 1012.54 1012.23 1011.98 1011.62 1010.75 1010.74 1011.38 1012.25 1013.19 1012.50 1012.57 1012.13 1012.59 1012.82 1012.99 1011.60 1010.92 1010.53 1010.83 1011.00 1011.48 1011.29 1011.56 1012.23 1012.76 1013.05 1013.67 1013.64 1012.97 1012.90 1013.14 1013.19 1013.41 1013.90 1014.01 1014.46 1015.17 1015.80 1016.14
1013.09 1013.01 1012.83 1012.82 1012.52 1012.42 1012.64 1012.47 1011.80 1011.72 1011.31 1011.21 1010.67 1010.59 1010.73 1011.42 1011.37 1011.61 1011.16 1011.32 1012.32 1012.97 1012.99 1010.57 1010.73 1010.69 1010.65 1011.02 1010.96 1011.75 1011.69 1011.87 1012.42 1012.66 1013.27 1013.12 1013.14 1013.24 1013.48 1013.51 1013.54 1014.28 1014.47 1015.18 1016.11 1017.12 1017.49
1012.54 1012.48 1012.38 1012.36 1012.34 1011.72 1011.61 1011.11 1011.44 1011.25 1010.98 1010.64 1010.37 1010.29 1010.03 1011.09 1011.21 1010.88 1010.65 1011.09 1012.45 1013.84 1011.38 1010.71 1010.82 1010.84 1011.12 1011.49 1011.47 1011.75 1011.87 1011.98 1012.19 1012.74 1013.00 1013.35 1013.33 1013.37 1013.52 1013.95 1014.02 1014.81 1015.61 1016.55 1017.60 1018.73 1019.14
1012.00 1012.00 1011.95 1011.93 1011.89 1011.77 1011.13 1011.00 1010.90 1010.77 1010.43 1010.39 1010.04 1009.64 1009.29 1009.92 1010.29 1010.32 1010.68 1011.63 1013.23 1012.35 1009.95 1010.50 1010.61 1010.89 1010.98 1011.49 1011.96 1011.62 1011.88 1012.07 1011.92 1013.19 1013.49 1013.79 1013.79 1013.80 1013.82 1014.49 1014.72 1015.11 1016.63 1018.32 1019.39 1019.79 1019.03
1011.57 1011.55 1011.41 1011.42 1011.35 1011.00 1010.74 1010.82 1010.54 1010.29 1009.88 1009.57 1009.37 1009.05 1008.34 1008.79 1009.29 1009.88 1010.71 1011.91 1011.92 1009.80 1009.52 1009.31 1009.69 1010.66 1010.93 1011.10 1011.71 1011.75 1011.86 1012.28 1011.81 1011.85 1013.27 1013.82 1014.33 1013.78 1013.72 1013.84 1014.33 1015.40 1016.17 1017.43 1018.33 1019.33 1018.75
1011.21 1011.27 1011.13 1011.19 1011.06 1010.74 1010.50 1010.47 1010.11 1009.89 1009.35 1009.30 1009.20 1008.31 1007.32 1007.82 1008.54 1009.14 1010.26 1011.32 1008.93 1008.59 1008.25 1008.83 1009.69 1010.30 1010.65 1010.70 1010.83 1011.48 1011.64 1011.62 1011.03 1010.91 1011.50 1012.79 1013.48 1013.58 1013.68 1013.84 1014.09 1015.37 1015.80 1016.07 1017.45 1018.35 1018.65
1011.20 1011.12 1010.96 1010.82 1010.62 1010.44 1010.18 1009.96 1009.72 1009.25 1008.65 1008.60 1007.92 1006.79 1006.75 1007.05 1007.78 1008.93 1010.32 1009.26 1008.55 1007.33 1007.12 1007.71 1007.98 1008.63 1009.31 1009.78 1010.45 1010.96 1011.16 1010.18 1010.13 1009.81 1009.95 1011.19 1013.07 1013.82 1014.22 1014.22 1014.42 1014.54 1014.93 1016.08 1017.12 1018.30 1018.79
1011.18 1011.01 1010.77 1010.72 1010.37 1010.08 1009.85 1009.79 1009.23 1008.54 1008.15 1007.48 1005.84 1006.15 1005.59 1006.56 1007.66 1009.17 1009.13 1007.77 1007.85 1007.33 1007.01 1007.08 1007.25 1007.92 1008.41 1009.08 1009.74 1010.30 1010.38 1009.79 1009.42 1009.66 1010.01 1010.74 1012.13 1014.63 1014.44 1014.07 1013.81 1014.83 1014.80 1015.30 1016.00 1016.99 1017.49
1011.22 1010.93 1010.64 1010.50 1010.27 1009.93 1009.72 1009.35 1008.63 1008.63 1007.92 1007.33 1005.87 1006.52 1006.48 1006.09 1007.46 1008.21 1008.64 1006.80 1007.61 1006.99 1007.18 1007.09 1006.82 1007.20 1007.57 1008.35 1009.11 1009.85 1010.09 1010.13 1009.73 1009.46 1010.27 1010.74 1012.18 1014.17 1014.27 1013.69 1013.37 1013.58 1013.94 1014.47 1015.50 1016.24 1016.91
1011.32 1010.87 1010.56 1010.30 1010.05 1009.69 1009.56 1009.30 1009.15 1008.86 1008.08 1007.81 1007.50 1007.44 1007.02 1006.35 1006.77 1007.05 1007.37 1007.84 1008.03 1007.45 1007.06 1007.18 1007.20 1007.05 1007.48 1008.04 1008.93 1009.52 1010.18 1010.90 1010.53 1010.24 1010.74 1011.00 1011.86 1014.00 1014.51 1014.39 1013.85 1013.45 1013.60 1013.77 1014.46 1015.23 1016.33
1011.48 1011.05 1010.68 1010.39 1009.92 1009.71 1009.59 1009.18 1009.15 1008.81 1008.02 1007.71 1008.76 1008.37 1008.09 1007.29 1007.93 1007.63 1007.58 1007.60 1007.99 1007.75 1007.65 1007.28 1007.28 1007.62 1008.14 1008.47 1008.61 1009.75 1010.94 1011.50 1011.45 1011.61 1011.62 1011.56 1012.06 1012.76 1013.06 1012.76 1012.69 1013.47 1013.23 1013.50 1014.19 1015.33 1015.93
1012.01 1011.46 1010.94 1010.54 1010.06 1009.71 1009.58 1009.59 1009.39 1008.60 1008.08 1008.04 1008.84 1008.62 1008.72 1008.34 1008.62 1008.19 1007.76 1007.75 1008.46 1008.57 1008.44 1008.35 1008.49 1008.49 1008.84 1009.78 1010.15 1010.74 1011.97 1012.58 1012.68 1012.72 1012.58 1012.62 1013.22 1013.62 1013.48 1013.20 1012.97 1013.07 1013.35 1013.73 1014.24 1014.82 1015.70
1012.75 1011.96 1011.32 1010.72 1010.41 1010.14 1009.77 1009.54 1009.00 1008.80 1007.86 1007.84 1008.32 1008.41 1008.76 1008.81 1008.82 1008.57 1007.55 1007.94 1008.22 1009.26 1009.41 1009.45 1009.62 1010.27 1010.26 1010.94 1011.51 1011.89 1012.22 1012.92 1013.17 1013.67 1013.85 1014.09 1014.71 1014.70 1014.53 1014.04 1013.93 1014.10 1014.16 1014.42 1014.78 1015.25 1015.96
1012.99 1012.33 1011.61 1010.93 1010.45 1010.02 1009.71 1009.72 1009.31 1008.92 1008.30 1008.14 1008.25 1008.38 1008.88 1008.95 1008.69 1008.20 1007.67 1007.73 1007.74 1008.65 1010.41 1010.17 1010.46 1010.91 1011.86 1012.49 1012.80 1013.25 1013.37 1013.76 1014.00 1014.40 1015.04 1015.31 1015.37 1015.81 1015.95 1015.21 1015.02 1015.22 1014.88 1015.07 1015.17 1015.58 1016.22
1013.39 1012.75 1012.14 1011.33 1010.48 1010.10 1009.86 1009.66 1009.29 1009.17 1008.99 1008.90 1008.60 1008.69 1008.92 1008.72 1008.28 1007.84 1007.97 1007.98 1008.49 1008.63 1009.61 1011.02 1011.08 1011.01 1013.03 1013.24 1013.59 1014.10 1014.36 1014.94 1015.26 1015.55 1015.54 1015.95 1016.11 1016.29 1016.93 1016.80 1016.98 1016.29 1015.96 1016.00 1016.49 1017.25 1017.35
1013.85 1013.11 1012.52 1011.92 1011.21 1010.60 1010.28 1009.79 1009.30 1009.03 1009.19 1009.33 1008.80 1008.51 1008.43 1008.38 1008.23 1008.51 1008.54 1008.79 1008.93 1009.23 1010.39 1011.26 1011.55 1011.99 1012.63 1013.39 1014.46 1015.47 1015.82 1015.98 1016.43 1016.59 1016.42 1016.36 1016.47 1016.90 1017.11 1017.11 1017.17 1017.22 1016.95 1017.08 1017.01 1018.57 1018.55
1014.45 1013.67 1012.90 1012.41 1011.83 1011.15 1010.53 1010.07 1009.75 1009.51 1009.09 1009.11 1008.95 1008.78 1008.67 1008.83 1008.93 1008.96 1009.11 1009.42 1009.43 1009.81 1010.87 1011.69 1012.22 1012.49 1013.37 1014.22 1014.98 1015.57 1016.06 1016.06 1016.86 1017.16 1017.05 1016.92 1016.97 1016.99 1017.16 1017.21 1017.36 1017.62 1017.44 1017.50 1017.66 1018.81 1019.14
1014.97 1014.04 1013.40 1012.72 1012.31 1011.77 1011.10 1010.52 1010.41 1010.00 1009.30 1009.26 1009.53 1009.25 1009.15 1009.28 1009.54 1009.53 1009.42 1009.71 1010.21 1010.66 1011.54 1012.13 1012.79 1013.34 1013.68 1014.33 1015.55 1016.25 1016.81 1016.71 1016.89 1017.03 1017.35 1017.41 1017.56 1017.63 1017.37 1017.58 1017.88 1017.84 1017.81 1017.99 1018.68 1019.45 1019.34
1015.47 1014.48 1013.70 1013.08 1012.47 1011.98 1011.59 1011.18 1010.60 1010.03 1009.71 1009.99 1009.78 1009.48 1009.56 1009.81 1010.27 1010.05 1009.99 1010.21 1010.62 1010.76 1011.12 1012.33 1013.05 1013.82 1014.13 1014.67 1015.75 1016.63 1017.25 1017.29 1017.30 1017.03 1016.89 1017.14 1017.50 1017.83 1017.94 1018.02 1018.18 1017.95 1018.34 1018.62 1018.78 1019.22 1019.71
1015.73 1014.89 1014.00 1013.30 1012.51 1011.85 1011.24 1010.77 1010.13 1010.04 1010.15 1009.74 1009.80 1009.81 1009.88 1010.14 1010.96 1011.02 1011.32 1011.24 1011.11 1010.84 1010.94 1011.99 1012.36 1012.75 1013.24 1014.32 1015.64 1016.61 1017.69 1017.86 1017.79 1017.73 1017.01 1017.33 1017.22 1017.55 1017.78 1017.89 1017.54 1017.88 1018.22 1018.47 1018.89 1019.56 1020.37
Thickness
5526 5531 5539 5543 5552 5565 5580 5591 5597 5604 5609 5615 5623 5628 5632 5637 5643 5650 5655 5662 5669 5677 5682 5686 5692 5696 5701 5699 5705 5716 5716 5718 5718 5717 5712 5710 5705 5706 5701 5705 5709 5704 5710 5716 5715 5716 5717
5497 5504 5511 5522 5531 5541 5555 5565 5579 5591 5601 5608 5613 5619 5624 5629 5635 5642 5647 5655 5662 5669 5677 5681 5686 5690 5693 5687 5710 5712 5711 5712 5714 5713 5711 5709 5706 5708 5705 5706 5702 5707 5708 5711 5711 5712 5714
5472 5478 5486 5498 5511 5523 5535 5545 5563 5578 5586 5596 5604 5608 5612 5619 5624 5632 5639 5646 5654 5661 5670 5676 5680 5685 5686 5690 5704 5706 5707 5707 5710 5710 5706 5710 5708 5704 5705 5702 5707 5705 5696 5702 5705 5708 5706
5440 5453 5466 5477 5490 5500 5514 5528 5543 5559 5572 5584 5594 5602 5606 5610 5615 5621 5628 5636 5646 5652 5662 5669 5674 5679 5675 5694 5698 5699 5701 5700 5704 5706 5705 5707 5706 5700 5699 5702 5699 5692 5692 5679 5699 5699 5703
5422 5432 5442 5458 5466 5481 5492 5508 5524 5545 5560 5573 5581 5590 5602 5603 5607 5612 5618 5625 5635 5644 5649 5660 5665 5671 5668 5686 5687 5693 5697 5692 5695 5698 5700 5702 5700 5692 5693 5678 5669 5680 5667 5675 5688 5695 5694
5414 5417 5427 5440 5455 5460 5470 5487 5507 5525 5542 5557 5567 5575 5586 5596 5597 5603 5611 5618 5627 5633 5639 5648 5659 5657 5668 5676 5681 5685 5690 5689 5686 5686 5685 5687 5682 5674 5672 5663 5646 5666 5671 5685 5683 5689 5689
5411 5416 5420 5426 5440 5444 5456 5468 5486 5509 5523 5539 5553 5562 5572 5581 5589 5591 5600 5609 5613 5617 5629 5643 5656 5663 5673 5674 5677 5674 5680 5679 5680 5676 5665 5675 5663 5658 5670 5675 5683 5689 5682 5680 5686 5691 5684
5404 5406 5409 5414 5420 5433 5441 5454 5471 5491 5506 5526 5539 5549 5559 5567 5576 5582 5585 5597 5611 5614 5620 5638 5643 5654 5666 5671 5661 5664 5672 5665 5665 5657 5665 5658 5655 5668 5676 5678 5676 5679 5674 5668 5680 5681 5680
5399 5401 5404 5407 5411 5416 5426 5441 5455 5478 5496 5514 5530 5536 5546 5553 5561 5572 5581 5592 5601 5606 5605 5627 5635 5641 5649 5658 5658 5655 5660 5661 5659 5653 5654 5647 5668 5678 5670 5673 5673 5670 5662 5662 5665 5671 5675
5393 5397 5397 5399 5403 5406 5416 5433 5445 5462 5485 5498 5516 5524 5532 5539 5547 5565 5574 5585 5587 5591 5575 5601 5619 5632 5638 5647 5644 5659 5660 5659 5655 5649 5649 5650 5666 5670 5664 5664 5661 5655 5666 5662 5662 5644 5637
5388 5390 5393 5394 5400 5402 5406 5418 5437 5452 5471 5485 5503 5513 5522 5534 5549 5558 5577 5576 5575 5575 5521 5608 5609 5622 5630 5630 5641 5640 5652 5651 5644 5647 5644 5646 5652 5654 5652 5655 5659 5649 5658 5654 5649 5634 5628
5385 5386 5388 5390 5391 5399 5402 5420 5428 5441 5457 5475 5492 5506 5517 5520 5535 5551 5561 5564 5559 5538 5515 5581 5594 5602 5608 5616 5625 5631 5635 5643 5647 5641 5643 5639 5649 5649 5648 5644 5649 5643 5637 5629 5616 5605 5589
5383 5384 5385 5387 5387 5388 5394 5408 5421 5434 5449 5461 5479 5499 5513 5520 5532 5542 5544 5541 5525 5512 5579 5578 5584 5594 5604 5604 5610 5619 5622 5623 5623 5610 5613 5629 5630 5636 5639 5629 5632 5635 5616 5577 5578 5562 5595
5382 5383 5385 5385 5385 5387 5390 5397 5415 5427 5442 5457 5469 5491 5508 5522 5521 5524 5524 5519 5508 5552 5572 5582 5587 5584 5592 5601 5602 5608 5608 5607 5621 5628 5603 5600 5595 5621 5632 5631 5623 5614 5614 5588 5578 5581 5599
5380 5380 5382 5382 5382 5384 5388 5391 5408 5422 5433 5448 5458 5482 5504 5512 5514 5512 5509 5503 5543 5548 5575 5573 5575 5574 5581 5596 5599 5600 5600 5604 5622 5625 5619 5603 5608 5619 5622 5623 5625 5608 5602 5617 5597 5597 5583
5375 5376 5378 5380 5382 5381 5385 5389 5399 5416 5434 5441 5460 5484 5499 5506 5510 5503 5491 5520 5543 5564 5572 5571 5575 5580 5575 5589 5592 5593 5594 5615 5622 5630 5632 5616 5593 5603 5604 5610 5610 5608 5614 5591 5582 5574 5579
5371 5372 5375 5376 5379 5380 5383 5384 5398 5419 5429 5443 5476 5487 5494 5497 5492 5479 5482 5534 5543 5557 5567 5572 5576 5573 5579 5579 5583 5587 5593 5612 5620 5619 5622 5615 5598 5580 5592 5592 5598 5591 5593 5598 5593 5576 5570
5368 5370 5373 5374 5375 5378 5379 5384 5399 5412 5425 5440 5462 5469 5477 5484 5475 5469 5487 5539 5538 5549 5557 5562 5573 5578 5577 5576 5576 5579 5587 5596 5599 5613 5603 5609 5579 5555 5573 5590 5596 5595 5595 5592 5576 5585 5560
5366 5368 5370 5373 5375 5377 5377 5382 5390 5399 5417 5428 5438 5455 5464 5473 5473 5488 5512 5512 5521 5536 5542 5549 5556 5569 5574 5570 5567 5578 5574 5571 5580 5590 5592 5594 5580 5538 5556 5567 5579 5585 5590 5595 5592 5581 5570
5361 5364 5367 5369 5374 5375 5374 5380 5385 5395 5409 5422 5421 5444 5446 5452 5451 5486 5495 5501 5507 5514 5529 5541 5549 5555 5559 5561 5569 5562 5555 5552 5559 5562 5570 5577 5575 5567 5562 5574 5574 5568 5579 5582 5581 5554 5568
5354 5357 5361 5365 5369 5372 5372 5373 5379 5390 5402 5413 5410 5426 5427 5447 5449 5460 5482 5479 5493 5497 5499 5513 5530 5538 5545 5541 5551 5546 5537 5534 5539 5545 5549 5559 5556 5559 5562 5563 5568 5569 5570 5568 5565 5568 5555
5347 5351 5355 5361 5363 5365 5368 5369 5376 5387 5398 5410 5413 5421 5420 5433 5433 5447 5476 5472 5491 5471 5478 5487 5506 5497 5503 5516 5512 5527 5522 5528 5535 5526 5527 5522 5514 5521 5523 5547 5549 5550 5554 5552 5552 5554 5552
5343 5347 5351 5357 5361 5364 5365 5364 5371 5379 5389 5400 5408 5414 5417 5423 5433 5448 5464 5476 5492 5480 5462 5476 5483 5488 5486 5483 5487 5486 5489 5491 5498 5501 5496 5496 5500 5496 5498 5518 5521 5524 5524 5535 5542 5531 5540
5340 5342 5346 5352 5360 5362 5362 5362 5368 5374 5380 5389 5401 5408 5412 5423 5434 5441 5445 5456 5462 5475 5474 5464 5472 5483 5467 5472 5472 5472 5475 5474 5475 5478 5485 5488 5490 5478 5467 5484 5494 5496 5491 5502 5490 5483 5487
5335 5338 5341 5345 5351 5356 5357 5360 5364 5372 5377 5382 5391 5403 5408 5420 5425 5430 5436 5438 5443 5452 5449 5454 5460 5462 5464 5461 5457 5455 5456 5461 5457 5460 5467 5474 5476 5479 5487 5487 5476 5468 5479 5481 5490 5462 5473
5327 5331 5336 5338 5342 5347 5353 5356 5359 5365 5374 5379 5386 5394 5403 5407 5417 5422 5428 5428 5437 5442 5442 5438 5442 5448 5450 5445 5448 5454 5456 5459 5453 5447 5450 5455 5455 5472 5460 5468 5474 5455 5462 5468 5471 5446 5455
5317 5323 5328 5333 5335 5339 5345 5351 5351 5357 5369 5375 5378 5386 5393 5398 5404 5409 5419 5423 5422 5425 5427 5428 5429 5434 5438 5421 5428 5427 5434 5439 5443 5442 5439 5439 5437 5440 5445 5441 5434 5442 5447 5451 5439 5444 5440
5309 5313 5318 5324 5330 5335 5339 5342 5347 5354 5362 5367 5371 5378 5385 5388 5391 5399 5404 5416 5417 5422 5419 5415 5416 5411 5407 5405 5415 5416 5408 5421 5425 5432 5436 5436 5432 5428 5428 5420 5424 5430 5429 5428 5427 5425 5421
5305 5306 5309 5315 5323 5330 5337 5341 5348 5351 5353 5362 5367 5373 5379 5382 5380 5384 5387 5394 5402 5409 5417 5411 5414 5416 5417 5406 5394 5392 5392 5385 5407 5403 5427 5413 5424 5419 5424 5420 5424 5419 5421 5419 5417 5409 5403